When you browse on this site, cookies collect data to enhance your experience and personalize the content and advertising you see.
Visit our Privacy Policy to learn more. By continuing to use the site, you agree to this use of cookies and data.
  • In Lithuania
  • List of Countries
  • For 7 days
  • Water Temperature
  • Weather Map
  • Weather Widgets
  • user-avatar
    Login

    Hourly Weather Elbasan

    Today, 19 February, Wednesday

    Time Temperature Precipitation Wind Pressure Humidity
    00:00 +9°C° 0 mm 1 mps 737 mmHg 83%
    01:00 +9°C° 0 mm 1 mps 738 mmHg 83%
    02:00 +9°C° 0 mm 1 mps 737 mmHg 84%
    03:00 +9°C° 0 mm 1 mps 737 mmHg 84%
    04:00 +9°C° 0 mm 1 mps 737 mmHg 85%
    05:00 +9°C° 0 mm 1 mps 737 mmHg 85%
    06:00 +9°C° 0 mm 1 mps 737 mmHg 85%
    07:00 +9°C° 0 mm 1 mps 737 mmHg 83%
    08:00 +10°C° 0 mm 1 mps 737 mmHg 78%
    09:00 +12°C° 0 mm 1 mps 737 mmHg 72%
    10:00 +13°C° 0 mm 1 mps 737 mmHg 67%
    11:00 +14°C° 0 mm 1 mps 737 mmHg 65%
    12:00 +14°C° 0 mm 1 mps 736 mmHg 64%
    13:00 +15°C° 0 mm 2 mps 736 mmHg 62%
    14:00 +15°C° 0 mm 2 mps 735 mmHg 66%
    15:00 +14°C° 0 mm 2 mps 735 mmHg 70%
    16:00 +14°C° 0 mm 2 mps 734 mmHg 74%
    17:00 +13°C° 0.2 mm 1 mps 734 mmHg 80%
    18:00 +12°C° 0.2 mm 1 mps 734 mmHg 85%
    19:00 +11°C° 0.2 mm 1 mps 734 mmHg 91%
    20:00 +10°C° 0.4 mm 1 mps 734 mmHg 92%
    21:00 +10°C° 0.4 mm 1 mps 734 mmHg 93%
    22:00 +10°C° 0.4 mm 1 mps 734 mmHg 93%
    23:00 +10°C° 0.5 mm 1 mps 734 mmHg 93%

    Tomorrow, 20 February, Thursday

    Time Temperature Precipitation Wind Pressure Humidity
    00:00 +9°C° 0.5 mm 1 mps 733 mmHg 93%
    01:00 +9°C° 0.5 mm 1 mps 733 mmHg 93%
    02:00 +9°C° 0.7 mm 1 mps 733 mmHg 94%
    03:00 +9°C° 0.7 mm 1 mps 733 mmHg 95%
    04:00 +9°C° 0.7 mm 1 mps 733 mmHg 95%
    05:00 +9°C° 0.6 mm 1 mps 733 mmHg 95%
    06:00 +9°C° 0.6 mm 1 mps 733 mmHg 95%
    07:00 +8°C° 0.6 mm 0 mps 733 mmHg 95%
    08:00 +9°C° 1.1 mm 1 mps 733 mmHg 94%
    09:00 +9°C° 1.1 mm 1 mps 733 mmHg 94%
    10:00 +9°C° 1.1 mm 1 mps 734 mmHg 94%
    11:00 +8°C° 1.5 mm 2 mps 734 mmHg 87%
    12:00 +8°C° 1.5 mm 2 mps 734 mmHg 81%
    13:00 +8°C° 1.5 mm 2 mps 734 mmHg 75%
    14:00 +9°C° 0.1 mm 2 mps 734 mmHg 72%
    15:00 +9°C° 0.1 mm 2 mps 734 mmHg 70%
    16:00 +9°C° 0.1 mm 2 mps 734 mmHg 67%
    17:00 +8°C° 0 mm 2 mps 735 mmHg 69%
    18:00 +7°C° 0 mm 2 mps 735 mmHg 71%
    19:00 +6°C° 0 mm 2 mps 736 mmHg 73%
    20:00 +6°C° 0 mm 2 mps 736 mmHg 72%
    21:00 +5°C° 0 mm 2 mps 736 mmHg 72%
    22:00 +5°C° 0 mm 2 mps 737 mmHg 72%
    23:00 +4°C° 0 mm 2 mps 737 mmHg 71%

    Day after tomorrow, 21 February, Friday

    Time Temperature Precipitation Wind Pressure Humidity
    00:00 +4°C° 0 mm 2 mps 737 mmHg 71%
    01:00 +4°C° 0 mm 2 mps 737 mmHg 71%
    02:00 +4°C° 0 mm 2 mps 738 mmHg 70%
    03:00 +3°C° 0 mm 2 mps 738 mmHg 69%
    04:00 +3°C° 0 mm 2 mps 738 mmHg 69%
    05:00 +3°C° 0 mm 2 mps 738 mmHg 68%
    06:00 +3°C° 0 mm 2 mps 739 mmHg 68%
    07:00 +3°C° 0 mm 2 mps 739 mmHg 67%
    14:00 +12°C° 0 mm 1 mps 739 mmHg 38%
    15:00 +12°C° 0 mm 2 mps 739 mmHg 41%
    16:00 +10°C° 0 mm 2 mps 739 mmHg 45%
    17:00 +10°C° 0 mm 1 mps 740 mmHg 49%
    18:00 +9°C° 0 mm 1 mps 740 mmHg 53%
    19:00 +7°C° 0 mm 1 mps 741 mmHg 57%
    20:00 +7°C° 0 mm 1 mps 741 mmHg 56%
    21:00 +7°C° 0 mm 1 mps 741 mmHg 56%
    22:00 +7°C° 0 mm 1 mps 741 mmHg 56%
    23:00 +6°C° 0 mm 1 mps 741 mmHg 55%

    22 February, Saturday

    Time Temperature Precipitation Wind Pressure Humidity
    00:00 +6°C° 0 mm 1 mps 741 mmHg 55%
    01:00 +6°C° 0 mm 1 mps 742 mmHg 54%
    02:00 +6°C° 0 mm 1 mps 742 mmHg 55%
    03:00 +6°C° 0 mm 1 mps 742 mmHg 55%
    04:00 +5°C° 0 mm 1 mps 741 mmHg 56%
    05:00 +5°C° 0 mm 1 mps 742 mmHg 57%
    06:00 +5°C° 0 mm 1 mps 742 mmHg 59%
    07:00 +5°C° 0 mm 1 mps 742 mmHg 60%
    08:00 +6°C° 0 mm 2 mps 743 mmHg 54%
    09:00 +8°C° 0 mm 2 mps 743 mmHg 49%
    10:00 +9°C° 0 mm 2 mps 743 mmHg 44%
    11:00 +10°C° 0 mm 2 mps 743 mmHg 39%
    12:00 +10°C° 0 mm 2 mps 743 mmHg 35%
    13:00 +11°C° 0 mm 3 mps 743 mmHg 30%
    14:00 +12°C° 0 mm 2 mps 743 mmHg 32%
    15:00 +10°C° 0 mm 2 mps 743 mmHg 34%
    16:00 +10°C° 0 mm 2 mps 743 mmHg 35%
    17:00 +9°C° 0 mm 2 mps 743 mmHg 39%
    18:00 +7°C° 0 mm 2 mps 744 mmHg 43%
    19:00 +6°C° 0 mm 2 mps 744 mmHg 47%
    20:00 +5°C° 0 mm 2 mps 745 mmHg 48%
    21:00 +5°C° 0 mm 2 mps 745 mmHg 50%
    22:00 +5°C° 0 mm 2 mps 745 mmHg 51%
    23:00 +4°C° 0 mm 2 mps 745 mmHg 51%

    23 February, Sunday

    Time Temperature Precipitation Wind Pressure Humidity
    00:00 +4°C° 0 mm 2 mps 745 mmHg 52%
    01:00 +4°C° 0 mm 2 mps 745 mmHg 52%
    02:00 +5°C° 0 mm 1 mps 745 mmHg 51%
    03:00 +5°C° 0 mm 1 mps 745 mmHg 50%
    04:00 +5°C° 0 mm 1 mps 744 mmHg 50%
    05:00 +5°C° 0 mm 1 mps 745 mmHg 48%
    06:00 +5°C° 0 mm 1 mps 745 mmHg 47%
    07:00 +6°C° 0 mm 1 mps 745 mmHg 46%
    08:00 +8°C° 0 mm 1 mps 745 mmHg 41%
    09:00 +10°C° 0 mm 1 mps 745 mmHg 37%
    10:00 +11°C° 0 mm 0 mps 745 mmHg 33%
    11:00 +12°C° 0 mm 1 mps 744 mmHg 34%
    12:00 +13°C° 0 mm 1 mps 744 mmHg 35%
    13:00 +14°C° 0 mm 1 mps 744 mmHg 36%
    14:00 +14°C° 0 mm 1 mps 743 mmHg 40%
    15:00 +13°C° 0 mm 1 mps 743 mmHg 45%
    16:00 +13°C° 0 mm 1 mps 742 mmHg 50%
    17:00 +12°C° 0 mm 1 mps 742 mmHg 54%
    18:00 +10°C° 0 mm 1 mps 742 mmHg 58%
    19:00 +8°C° 0 mm 0 mps 742 mmHg 63%
    20:00 +8°C° 0 mm 0 mps 742 mmHg 61%
    21:00 +8°C° 0 mm 0 mps 742 mmHg 59%
    22:00 +8°C° 0 mm 0 mps 742 mmHg 58%
    23:00 +7°C° 0 mm 0 mps 742 mmHg 57%

    24 February, Monday

    Time Temperature Precipitation Wind Pressure Humidity
    00:00 +7°C° 0 mm 0 mps 741 mmHg 57%
    01:00 +8°C° 0 mm 1 mps 741 mmHg 57%
    02:00 +8°C° 0 mm 1 mps 741 mmHg 55%
    03:00 +8°C° 0 mm 1 mps 740 mmHg 54%
    04:00 +7°C° 0 mm 1 mps 740 mmHg 53%
    05:00 +7°C° 0 mm 1 mps 740 mmHg 53%
    06:00 +8°C° 0 mm 1 mps 739 mmHg 53%
    07:00 +8°C° 0 mm 1 mps 739 mmHg 53%
    08:00 +10°C° 0 mm 1 mps 739 mmHg 51%
    09:00 +11°C° 0 mm 1 mps 739 mmHg 48%
    10:00 +13°C° 0 mm 1 mps 739 mmHg 45%
    11:00 +14°C° 0 mm 2 mps 739 mmHg 47%
    12:00 +14°C° 0 mm 2 mps 739 mmHg 48%
    13:00 +15°C° 0 mm 2 mps 739 mmHg 49%
    14:00 +15°C° 0 mm 2 mps 739 mmHg 53%
    15:00 +14°C° 0 mm 2 mps 739 mmHg 57%
    16:00 +14°C° 0 mm 2 mps 739 mmHg 61%
    17:00 +13°C° 0 mm 2 mps 739 mmHg 66%
    18:00 +11°C° 0 mm 1 mps 740 mmHg 71%
    19:00 +10°C° 0 mm 1 mps 740 mmHg 76%
    20:00 +10°C° 0 mm 1 mps 740 mmHg 76%
    21:00 +9°C° 0 mm 2 mps 741 mmHg 75%
    22:00 +8°C° 0 mm 2 mps 741 mmHg 74%
    23:00 +8°C° 0 mm 2 mps 741 mmHg 73%
    Show more